Weather in Gerlos

Austria     47°13′28″N   12°01′55″E
temp.,
°C
wind,
m/s
gust,
m/s
humid.,
%
clouds,
%
prec.,
mm/h
press.,
hPa
HPBL,
m
8 may, sat
sat823:00−3e119389 0.1 102349
02:00−4se008781 0.1 102411
05:00−7s3392100 0.0 102631
08:00−1s116877 0.0 1022144
11:00+5sw125393 0.0 1019800
14:00+9s2345100 0.0 10171524
17:00+10s234317 0.0 10161621
20:00+4s3273100 0.0 101829
9 may, sun
sun923:00+2s44646 0.0 102046
02:00+2s45725 0.0 102073
05:00+2s45745 0.0 101969
08:00+8s46665 0.0 1016173
11:00+13s44515 0.0 1014704
14:00+15ssw44475 0.0 10121108
17:00+15ssw45495 0.0 10111350
20:00+10s467011 0.0 1012129
10 may, mon
mon1023:00+6s68825 0.0 1014193
02:00+5s6987100 0.0 1014256
05:00+5s610829 0.0 1013247
08:00+8s69713 0.0 1012306
11:00+15ssw784941 0.0 1011726
14:00+18s464241 0.0 10101474
17:00+17s374373 0.0 10092166
20:00+12s456919 0.0 1010111
11 may, tue
tue1123:00+8s588625 0.0 1012210
02:00+7s58852 0.0 1012209
05:00+6s578910 0.0 1011170
08:00+10s587253 0.0 1010477
11:00+13s685248 0.2 1008927
14:00+14s5750100 0.2 10051410
17:00+12s45575 0.0 10051064
20:00+7s357552 0.0 1006309
12 may, wed
wed1223:00+4s3485100 0.0 1006103
02:00+4sse1186100 0.0 100561
05:00+4n1194100 0.6 1004192
08:00+2nnw35100100 7.5 1005413
11:00+2nnw22100100 5.4 1007169
14:00+2w12100100 8.9 1008207
17:00+2nw22100100 4.7 1009165
20:000wnw22100100 10.0 101175